Location: Newark
(38.1089°N, 103.8675°W)
Time: 05:38:05
(UTC+00:00)

Envisat - Pass Details

Date: 21 December 2019
Orbit: 764 x 766 km, 98.1° (Epoch: 20 January)

Event Time Altitude Azimuth Distance (km) Brightness Sun altitude
Rises 12:53:54 0° 24° (NNE) 3,238 6.3 -14.1°
Reaches altitude 10° 12:56:30 10° 35° (NE) 2,307 5.7 -13.6°
Maximum altitude 13:00:55 29° 96° (E) 1,363 5.1 -12.8°
Drops below altitude 10° 13:05:18 10° 156° (SSE) 2,292 6.1 -12.0°
Sets 13:07:51 0° 167° (SSE) 3,213 6.7 -11.5°
